[[{"header":{"parameterUnit":"m.s-1","parameterCategory":1,"la1":30.2991,"la2":30.254,"lo1":-89.0895,"lo2":-89.0444,"dy":0.0017,"dx":0.0017,"nx":28,"ny":28,"refTime":"2026-01-30T03:00:00:Z","depth":0,"parameterNumber":2,"parameterNumberName":"U-component_of_WINDS"},"data":[0,0,0,0,0,0,0,0,0,0,0,0,0,0,0,0,0,0,0,0,0,0,0,0,0,0,0,0,0,0,0,0,0,0,0,0,0,0,0,0,0,0,0,0,0,0,0,0,0,0,0,0,0,0,0,0,0,0,3.4201,3.4202,0,3.4256,3.4257,3.4258,3.4236,3.4235,3.4234,3.4233,3.4287,3.429,3.4293,0,0,0,0,0,0,0,0,0,0,0,0,0,3.4076,3.4078,3.4201,3.4202,3.4202,3.4256,3.4257,3.4258,3.4236,3.4235,3.4233,3.4232,3.4287,3.429,3.4293,0,0,0,0,0,0,0,0,0,0,0,0,0,3.4131,3.4079,3.4201,3.4198,3.4199,3.4256,3.4257,3.4258,3.4237,3.4235,3.4233,3.4231,3.4286,3.4289,3.4293,3.4356,0,0,3.4306,3.4307,0,0,0,0,0,0,0,0,3.4128,3.4135,3.4198,3.4198,3.4199,3.4238,3.4233,3.4291,3.4237,3.4222,3.4232,3.423,3.4272,3.4277,3.4292,3.4359,3.4361,3.4306,3.4308,3.431,3.4311,0,0,0,0,0,0,0,3.4124,3.4133,3.4223,3.4199,3.42,3.4194,3.42,3.4244,3.4257,3.4223,3.4222,3.4229,3.4272,3.4288,3.4293,3.4362,3.4306,3.4309,3.4312,3.4313,3.4485,3.4487,0,0,0,0,0,0,3.412,3.413,3.4221,3.4224,3.4158,3.4198,3.4204,3.4227,3.4257,3.4259,3.4231,3.4228,3.4282,3.4288,3.4295,3.4371,3.431,3.4314,3.4316,3.4483,3.4486,3.4488,0,0,0,0,0,0,3.4117,3.4128,3.4219,3.4177,3.4188,3.4202,3.4228,3.4229,3.4245,3.4262,3.4264,3.4244,3.4281,3.4289,3.4342,3.4373,3.4315,3.4319,3.448,3.4484,3.4487,3.4524,0,0,0,0,0,0,3.4114,3.4128,3.4152,3.4178,3.419,3.4265,3.423,3.4232,3.4252,3.4249,3.4276,3.4278,3.428,3.4336,3.4346,3.4377,3.4322,3.4478,3.4482,3.4486,3.452,3.4528,3.4535,0,0,0,0,0,3.411,3.4159,3.4153,3.4164,3.4221,3.4267,3.4274,3.4276,3.4255,3.4279,3.429,3.4277,3.4368,3.4341,3.4352,3.4386,3.4476,3.4481,3.4486,3.4517,3.4527,3.4535,0,0,0,0,0,0,3.4135,3.4162,3.4156,3.4215,3.4239,3.4263,3.4293,3.4286,3.4315,3.4311,3.4311,3.4318,3.4372,3.4384,3.4354,3.4449,3.4419,3.4426,3.4439,3.4448,3.4456,3.4451,3.4326,0,0,0,0,0,3.4148,3.4183,3.4205,3.4255,3.4268,3.4279,3.4299,3.4299,3.4323,3.4332,3.4348,3.4371,3.4405,3.4428,3.446,3.4522,3.4528,3.4551,3.4558,3.4564,3.457,3.4606,3.4616,3.4504,3.4504,3.4504,0,0,3.4174,3.4193,3.4216,3.4261,3.4279,3.4316,3.4287,3.4327,3.4354,3.4338,3.4389,3.4401,3.4428,3.4486,3.4513,3.4498,3.4603,3.4571,3.4575,3.4578,3.4612,3.4622,3.4632,3.4507,3.4507,3.4506,0,0,3.4241,3.4259,3.4303,3.4323,3.4352,3.4359,3.437,3.4396,3.4404,3.4455,3.4444,3.4477,3.4535,3.4555,3.4573,3.465,3.4639,3.466,3.4699,3.4733,3.4742,3.475,3.4778,3.4788,3.4666,3.4666,3.4666,0,3.4269,3.4325,3.4327,3.4369,3.4389,3.4378,3.4423,3.4442,3.4479,3.4494,3.4477,3.4552,3.4569,3.4632,3.4651,3.4666,3.4678,3.4656,3.4741,3.4749,3.4756,3.4783,3.4793,3.4669,3.4668,3.4668,3.4668,0,3.4359,3.4398,3.443,3.4468,3.4493,3.4536,3.4545,3.4569,3.4568,3.4577,3.463,3.465,3.4687,3.4702,3.47,3.4766,3.4756,3.474,3.471,3.4769,3.4794,3.4805,3.4672,3.4671,3.4671,3.467,0,0,3.4442,3.4482,3.4494,3.4512,3.4543,3.4573,3.4617,3.4654,3.4675,3.4702,3.4738,3.4789,3.4775,3.4796,3.4796,3.4826,3.4887,3.4807,3.4807,3.4821,3.4962,3.4973,3.4985,3.4881,3.4883,3.4884,3.496,0,3.4511,3.4587,3.4592,3.4661,3.4697,3.4688,3.4726,3.4749,3.476,3.4792,3.4803,3.484,3.4819,3.4831,3.4861,3.4873,3.4915,3.4868,3.4915,3.4916,3.4908,3.4998,3.501,3.508,3.4969,3.4971,3.4972,0,3.4602,3.4633,3.4706,3.4734,3.475,3.4784,3.4819,3.485,3.4877,3.4883,3.4907,3.4903,3.4948,3.4917,3.4979,3.4947,3.4966,3.4976,3.4979,3.4983,3.4947,3.5005,3.5103,3.5113,3.4988,3.4987,3.4985,0,3.4655,3.4715,3.4767,3.4782,3.4817,3.4841,3.4856,3.4882,3.4905,3.4935,3.495,3.4986,3.5005,3.5033,3.5039,3.5016,3.5102,3.5071,3.5107,3.5107,3.5125,3.5124,3.5228,3.5138,3.5138,3.5138,3.5138,0,3.4732,3.4777,3.4792,3.4824,3.4874,3.4879,3.4929,3.4943,3.4966,3.5001,3.4995,3.5028,3.5035,3.5069,3.5074,3.5125,3.5134,3.514,3.5141,3.514,3.514,3.5153,3.5148,3.5141,3.514,3.514,3.5139,0,3.48,3.4811,3.4867,3.4896,3.4904,3.4941,3.4965,3.4996,3.5007,3.5051,3.5061,3.5078,3.5118,3.5127,3.5175,3.5179,3.5239,3.5235,3.523,3.523,3.5266,3.5263,3.5382,3.5398,3.5298,3.5299,3.53,0,3.4848,3.4882,3.4916,3.4939,3.4956,3.4993,3.5016,3.5023,3.5048,3.5083,3.511,3.515,3.5182,3.5246,3.5262,3.5299,3.5296,3.5336,3.5301,3.5301,3.5297,3.5295,3.5299,3.5342,3.5343,3.5344,3.5344,0,3.4932,3.4937,3.4971,3.5008,3.5037,3.5066,3.5094,3.5113,3.5124,3.5153,3.5194,3.5219,3.5269,3.5308,3.5346,3.5362,3.5355,3.5355,3.5366,3.5365,3.5361,3.5364,3.5248,3.5352,3.5351,3.5351,3.535,3.535,3.4992,3.5023,3.5051,3.509,3.5113,3.5139,3.517,3.5185,3.522,3.5262,3.5264,3.5309,3.5337,3.5387,3.5405,3.5441,3.5429,3.5444,3.5448,3.5451,3.5455,3.5356,3.5448,3.5448,3.5447,3.5447,3.5447,0,3.5076,3.5094,3.513,3.5171,3.5202,3.5194,3.5225,3.5251,3.5292,3.5319,3.5351,3.54,3.5439,3.5459,3.5498,3.5523,3.5521,3.5533,3.5531,3.5535,3.5463,3.545,3.5534,3.5534,3.5534,3.5534,3.5534,3.5534,3.5123,3.5176,3.5184,3.5248,3.5266,3.5311,3.533,3.5355,3.5377,3.5431,3.5464,3.5478,3.5502,3.5543,3.5579,3.5584,3.5599,3.5612,3.5616,3.5548,3.5539,3.5531,3.5519,3.5615,3.5615,3.5684,3.5685,3.5685]},{"header":{"parameterUnit":"m.s-1","parameterCategory":1,"la1":30.2991,"la2":30.254,"lo1":-89.0895,"lo2":-89.0444,"dy":0.0017,"dx":0.0017,"nx":28,"ny":28,"refTime":"2026-01-30T03:00:00:Z","depth":0,"parameterNumber":3,"parameterNumberName":"V-component_of_WINDS"},"data":[0,0,0,0,0,0,0,0,0,0,0,0,0,0,0,0,0,0,0,0,0,0,0,0,0,0,0,0,0,0,0,0,0,0,0,0,0,0,0,0,0,0,0,0,0,0,0,0,0,0,0,0,0,0,0,0,0,0,-8.7303,-8.7305,0,-8.7485,-8.7487,-8.7489,-8.7437,-8.7434,-8.743,-8.7426,-8.7606,-8.7614,-8.7622,0,0,0,0,0,0,0,0,0,0,0,0,0,-8.6904,-8.6911,-8.7302,-8.7305,-8.7307,-8.7485,-8.7487,-8.749,-8.7438,-8.7434,-8.7429,-8.7425,-8.7604,-8.7613,-8.7623,0,0,0,0,0,0,0,0,0,0,0,0,0,-8.708,-8.6914,-8.7302,-8.7303,-8.7305,-8.7484,-8.7488,-8.7491,-8.7439,-8.7433,-8.7428,-8.7423,-8.76,-8.7612,-8.7625,-8.7812,0,0,-8.7662,-8.7668,0,0,0,0,0,0,0,0,-8.707,-8.7095,-8.73,-8.7303,-8.7306,-8.7433,-8.7413,-8.7598,-8.744,-8.7388,-8.7426,-8.742,-8.7553,-8.7569,-8.7615,-8.7821,-8.7828,-8.7663,-8.7671,-8.7676,-8.768,0,0,0,0,0,0,0,-8.7058,-8.7087,-8.7374,-8.7303,-8.7307,-8.7292,-8.7311,-8.7448,-8.7499,-8.7392,-8.7389,-8.7411,-8.7553,-8.7603,-8.7619,-8.7831,-8.7663,-8.7674,-8.7682,-8.7687,-8.8202,-8.8208,0,0,0,0,0,0,-8.7045,-8.7077,-8.7369,-8.738,-8.7172,-8.7304,-8.7325,-8.7398,-8.7497,-8.7507,-8.7416,-8.7408,-8.7585,-8.7604,-8.7625,-8.7852,-8.7676,-8.7688,-8.7695,-8.8196,-8.8203,-8.821,0,0,0,0,0,0,-8.7037,-8.7072,-8.7361,-8.7228,-8.7264,-8.7317,-8.7398,-8.7404,-8.7454,-8.7516,-8.7524,-8.7458,-8.7581,-8.7607,-8.7767,-8.7858,-8.7693,-8.7705,-8.8188,-8.8198,-8.8207,-8.8308,0,0,0,0,0,0,-8.7025,-8.7069,-8.7142,-8.723,-8.7271,-8.7503,-8.7404,-8.7412,-8.7477,-8.7468,-8.7557,-8.7567,-8.7579,-8.7749,-8.7779,-8.7872,-8.7714,-8.818,-8.8193,-8.8204,-8.8297,-8.832,-8.834,0,0,0,0,0,-8.7011,-8.7161,-8.7146,-8.7181,-8.7364,-8.7508,-8.7531,-8.7544,-8.7484,-8.7557,-8.7597,-8.7564,-8.7843,-8.7766,-8.7799,-8.7897,-8.8175,-8.8189,-8.8203,-8.8287,-8.8316,-8.8339,0,0,0,0,0,0,-8.7079,-8.7173,-8.7157,-8.734,-8.7417,-8.7499,-8.7591,-8.7573,-8.7666,-8.7654,-8.7664,-8.7684,-8.7848,-8.7888,-8.78,-8.8085,-8.8,-8.8021,-8.8053,-8.808,-8.8101,-8.8087,-8.7724,0,0,0,0,0,-8.7116,-8.7227,-8.7302,-8.7456,-8.7496,-8.7538,-8.7601,-8.7604,-8.7683,-8.7715,-8.7766,-8.7842,-8.7947,-8.8015,-8.8115,-8.8303,-8.8321,-8.8387,-8.8408,-8.8425,-8.8443,-8.8547,-8.8577,-8.8256,-8.8256,-8.8256,0,0,-8.7192,-8.7257,-8.7326,-8.7472,-8.7532,-8.7645,-8.7565,-8.7688,-8.7772,-8.7732,-8.7887,-8.7928,-8.8013,-8.8188,-8.8268,-8.8227,-8.8537,-8.8443,-8.8457,-8.8466,-8.8564,-8.8595,-8.8621,-8.8266,-8.8264,-8.8263,0,0,-8.7389,-8.7449,-8.7585,-8.7648,-8.7741,-8.7768,-8.7801,-8.7887,-8.7914,-8.807,-8.8043,-8.8142,-8.8323,-8.8385,-8.8441,-8.8665,-8.8638,-8.8697,-8.8807,-8.8908,-8.8933,-8.8956,-8.9036,-8.9064,-8.8715,-8.8715,-8.8715,0,-8.747,-8.7643,-8.7657,-8.7784,-8.7849,-8.7822,-8.7959,-8.8018,-8.8138,-8.8183,-8.8136,-8.8364,-8.8419,-8.8609,-8.8664,-8.871,-8.8747,-8.8686,-8.8929,-8.8952,-8.8973,-8.9049,-8.9079,-8.8722,-8.8721,-8.872,-8.872,0,-8.7739,-8.7859,-8.7957,-8.8078,-8.8154,-8.8285,-8.8318,-8.8393,-8.8391,-8.8422,-8.8582,-8.8648,-8.8762,-8.8807,-8.8805,-8.8998,-8.897,-8.8926,-8.8841,-8.901,-8.9082,-8.9111,-8.8731,-8.8729,-8.8727,-8.8725,0,0,-8.7981,-8.8111,-8.8146,-8.8201,-8.8303,-8.8395,-8.8525,-8.864,-8.8704,-8.8788,-8.8897,-8.9052,-8.9013,-8.9076,-8.9081,-8.9169,-8.9343,-8.9115,-8.9117,-8.9155,-8.956,-8.9592,-8.9626,-8.9327,-8.9332,-8.9337,-8.9553,0,-8.8187,-8.8419,-8.8437,-8.8645,-8.8756,-8.8733,-8.8846,-8.8921,-8.8954,-8.9052,-8.9088,-8.9198,-8.9138,-8.9177,-8.9263,-8.9304,-8.9425,-8.9288,-8.9426,-8.9431,-8.9406,-8.9663,-8.9697,-8.9898,-8.9581,-8.9586,-8.9589,0,-8.8457,-8.8553,-8.8774,-8.8863,-8.891,-8.9012,-8.9119,-8.9213,-8.9296,-8.9315,-8.9387,-8.938,-8.9513,-8.9424,-8.9606,-8.9513,-8.9571,-8.96,-8.9608,-8.962,-8.952,-8.9683,-8.9962,-8.9992,-8.9634,-8.963,-8.9627,0,-8.8612,-8.8796,-8.8953,-8.9,-8.9107,-8.918,-8.9227,-8.9306,-8.9374,-8.9467,-8.9511,-8.9617,-8.9675,-8.9757,-8.9779,-8.9712,-8.9961,-8.9873,-8.9979,-8.9978,-9.0031,-9.0027,-9.0324,-9.0069,-9.0069,-9.0068,-9.0068,0,-8.884,-8.8975,-8.9024,-8.912,-8.9271,-8.929,-8.9439,-8.9482,-8.9553,-8.9655,-8.9641,-8.9738,-8.9761,-8.9861,-8.9879,-9.0028,-9.0054,-9.0071,-9.0074,-9.0073,-9.007,-9.0109,-9.0096,-9.0076,-9.0074,-9.0073,-9.0072,0,-8.9038,-8.9076,-8.9245,-8.9334,-8.936,-8.9467,-8.9543,-8.9634,-8.9667,-8.9798,-8.9829,-8.988,-8.9998,-9.0029,-9.0168,-9.018,-9.0356,-9.0345,-9.0328,-9.0328,-9.0431,-9.0421,-9.0763,-9.0808,-9.0524,-9.0527,-9.0529,0,-8.918,-8.9285,-8.9386,-8.9456,-8.9508,-8.9619,-8.969,-8.9713,-8.9786,-8.9891,-8.997,-9.0087,-9.0182,-9.0371,-9.0419,-9.0527,-9.0518,-9.0631,-9.0534,-9.053,-9.052,-9.0514,-9.0524,-9.0649,-9.0652,-9.0654,-9.0656,0,-8.9429,-8.9444,-8.9547,-8.9659,-8.9745,-8.9833,-8.9916,-8.9974,-9.0008,-9.0092,-9.0214,-9.0288,-9.0433,-9.0549,-9.0658,-9.0704,-9.0686,-9.0687,-9.0717,-9.0716,-9.0702,-9.0711,-9.0378,-9.0678,-9.0676,-9.0674,-9.0673,-9.0672,-8.9604,-8.9696,-8.9783,-8.99,-8.9966,-9.0046,-9.0137,-9.0183,-9.0286,-9.0408,-9.0415,-9.0548,-9.063,-9.0775,-9.0828,-9.0931,-9.0897,-9.094,-9.0951,-9.0961,-9.0971,-9.0687,-9.0951,-9.095,-9.0949,-9.0949,-9.0949,0,-8.9852,-8.9908,-9.0015,-9.0135,-9.0227,-9.0205,-9.0298,-9.0375,-9.0493,-9.0573,-9.0668,-9.0809,-9.0922,-9.098,-9.1092,-9.1164,-9.1158,-9.1192,-9.1187,-9.1198,-9.0994,-9.0958,-9.1195,-9.1195,-9.1195,-9.1195,-9.1195,-9.1195,-8.9992,-9.0148,-9.0173,-9.0362,-9.0416,-9.0548,-9.0603,-9.0676,-9.074,-9.0899,-9.0995,-9.1033,-9.1104,-9.1222,-9.1325,-9.1339,-9.138,-9.1419,-9.1429,-9.1237,-9.1212,-9.1188,-9.1153,-9.1428,-9.1428,-9.1623,-9.1625,-9.1626]}]]